Hourly Data Report for June 12, 2017

FISHER BRANCH (AUT)
MANITOBA

51°05'00.100" N
97°33'16.200" W
253.00 m
50309J6
71442
WSZ

Download Data

Hourly Data (June 2017)
Hourly Data Report for June 12, 2017
TIME
LST
Temp Definition
°C
Dew Point Definition
°C
Rel Hum Definition
%
Precip. Amount Definition
mm

Wind Dir Definition
10's deg

Wind Spd Definition
km/h
Visibility Definition
km
Stn Press Definition
kPa
Hmdx Definition


Wind Chill Definition


Weather Definition


00:00 11.7 9.8 88 0.0 23 6   97.70     LegendNANA
01:00 13.7 9.7 77 0.0 28 12   97.79     LegendNANA
02:00 11.4 8.2 81 0.0 29 9   97.86     LegendNANA
03:00 11.0 8.6 85 0.0 27 7   97.94     LegendNANA
04:00 9.5 7.3 86 0.0 29 8   98.03     LegendNANA
05:00 9.7 7.1 84 0.0 27 7   98.16     LegendNANA
06:00 11.6 7.8 78 0.0 28 7   98.27     LegendNANA
07:00 13.9 7.1 63 0.0 31 10   98.37     LegendNANA
08:00 15.6 4.2 47 0.0 30 14   98.44     LegendNANA
09:00 16.5 2.2 38 0.0 31 19   98.53     LegendNANA
10:00 18.1 2.0 34 0.0 32 16   98.56     LegendNANA
11:00 18.1 -0.4 29 0.0 33 18   98.57     LegendNANA
12:00 18.6 0.0 29 0.0 30 14   98.60     LegendNANA
13:00 19.1 0.6 29 0.0 31 10   98.59     LegendNANA
14:00 19.3 0.1 27 0.0 34 12   98.56     LegendNANA
15:00 20.5 2.2 30 0.0 32 9   98.54     LegendNANA
16:00 21.2 2.9 30 0.0 32 7   98.56     LegendNANA
17:00 20.8 1.5 28 0.0 2 4   98.57     LegendNANA
18:00 20.1 4.6 36 0.0 10 15   98.58     LegendNANA
19:00 18.4 6.2 45 0.0 12 18   98.61     LegendNANA
20:00 15.7 6.7 55 0.0 12 11   98.64     LegendNANA
21:00 11.2 5.5 68 0.0 8 6   98.66     LegendNANA
22:00 9.1 4.9 75 0.0 8 6   98.70     LegendNANA
23:00 8.1 4.5 78 0.0 6 8   98.68     LegendNANA

Notes on Data Quality.

Legend

  • E = Estimated
  • M = Missing
  • NA = Not Available*
  • [empty] = Indicates an unobserved value
Date modified: